[[{"header":{"parameterUnit":"m.s-1","parameterCategory":1,"la1":30.2991,"la2":30.254,"lo1":-89.0895,"lo2":-89.0444,"dy":0.0017,"dx":0.0017,"nx":28,"ny":28,"refTime":"2024-12-18T03:00:00:Z","depth":0,"parameterNumber":2,"parameterNumberName":"U-component_of_WINDS"},"data":[0,0,0,0,0,0,0,0,0,0,0,0,0,0,0,0,0,0,0,0,0,0,0,0,0,0,0,0,0,0,0,0,0,0,0,0,0,0,0,0,0,0,0,0,0,0,0,0,0,0,0,0,0,0,0,0,0,0,-1.221,-1.221,0,-1.2211,-1.2211,-1.2211,-1.2166,-1.2165,-1.2164,-1.2163,-1.2165,-1.2166,-1.2167,0,0,0,0,0,0,0,0,0,0,0,0,0,-1.2171,-1.2172,-1.221,-1.221,-1.221,-1.2211,-1.2211,-1.2211,-1.2166,-1.2165,-1.2163,-1.2162,-1.2165,-1.2166,-1.2167,0,0,0,0,0,0,0,0,0,0,0,0,0,-1.2182,-1.2172,-1.221,-1.2188,-1.2186,-1.2211,-1.2211,-1.2211,-1.2167,-1.2165,-1.2163,-1.2161,-1.2164,-1.2166,-1.2168,-1.2214,0,0,-1.2173,-1.2174,0,0,0,0,0,0,0,0,-1.2181,-1.2183,-1.2191,-1.2189,-1.2187,-1.2187,-1.2198,-1.2212,-1.2167,-1.2174,-1.2163,-1.2161,-1.2174,-1.2175,-1.2179,-1.2214,-1.2215,-1.2173,-1.2174,-1.2175,-1.2175,0,0,0,0,0,0,0,-1.218,-1.2183,-1.221,-1.2191,-1.2189,-1.2178,-1.2178,-1.2201,-1.2184,-1.2173,-1.217,-1.2171,-1.2172,-1.2177,-1.2178,-1.2215,-1.2173,-1.2175,-1.2176,-1.2176,-1.2291,-1.2293,0,0,0,0,0,0,-1.2182,-1.2183,-1.221,-1.221,-1.218,-1.2181,-1.218,-1.2189,-1.2184,-1.2181,-1.2172,-1.2169,-1.2175,-1.2176,-1.2178,-1.2234,-1.2175,-1.2177,-1.2178,-1.2289,-1.2291,-1.2294,0,0,0,0,0,0,-1.2182,-1.2185,-1.221,-1.2196,-1.2198,-1.2183,-1.2193,-1.219,-1.2194,-1.2183,-1.218,-1.218,-1.2174,-1.2176,-1.2206,-1.2233,-1.2177,-1.2179,-1.2287,-1.229,-1.2293,-1.2345,0,0,0,0,0,0,-1.2181,-1.2185,-1.2202,-1.2196,-1.2199,-1.2237,-1.2195,-1.2191,-1.2197,-1.2193,-1.2189,-1.2187,-1.2172,-1.2204,-1.2208,-1.2235,-1.218,-1.2284,-1.2288,-1.2292,-1.2341,-1.2349,-1.2357,0,0,0,0,0,-1.218,-1.2217,-1.2203,-1.2207,-1.222,-1.2239,-1.2241,-1.2223,-1.22,-1.2217,-1.221,-1.2187,-1.223,-1.2207,-1.2212,-1.2239,-1.2282,-1.2287,-1.2291,-1.2337,-1.2348,-1.2357,0,0,0,0,0,0,-1.2226,-1.2216,-1.2201,-1.2237,-1.2239,-1.2231,-1.2253,-1.2234,-1.2243,-1.2238,-1.2216,-1.2216,-1.225,-1.2248,-1.2223,-1.2286,-1.2252,-1.2258,-1.2286,-1.2296,-1.2303,-1.2303,-1.2182,0,0,0,0,0,-1.2241,-1.2257,-1.2247,-1.228,-1.2282,-1.2267,-1.2275,-1.2261,-1.2263,-1.2264,-1.2259,-1.2262,-1.2276,-1.2286,-1.2298,-1.2341,-1.234,-1.2362,-1.237,-1.2377,-1.2382,-1.2406,-1.2416,-1.2308,-1.2308,-1.2308,0,0,-1.2271,-1.2267,-1.2279,-1.2289,-1.2289,-1.2308,-1.2268,-1.2289,-1.2302,-1.2267,-1.2295,-1.2292,-1.2294,-1.2331,-1.2347,-1.233,-1.2411,-1.2382,-1.2388,-1.2389,-1.2411,-1.2422,-1.2431,-1.2311,-1.2311,-1.231,0,0,-1.2335,-1.2333,-1.2361,-1.2363,-1.2364,-1.2354,-1.2361,-1.2357,-1.2353,-1.2381,-1.2356,-1.2372,-1.2396,-1.2399,-1.2404,-1.2472,-1.2452,-1.2477,-1.2518,-1.2542,-1.2551,-1.2558,-1.2583,-1.2592,-1.2482,-1.2482,-1.2482,0,-1.2372,-1.2398,-1.2378,-1.2401,-1.2407,-1.2376,-1.2405,-1.2408,-1.2413,-1.2418,-1.2399,-1.243,-1.2429,-1.2468,-1.2484,-1.2489,-1.2497,-1.2477,-1.2551,-1.2558,-1.2565,-1.2588,-1.2598,-1.2485,-1.2485,-1.2484,-1.2484,0,-1.2444,-1.2463,-1.2485,-1.2491,-1.25,-1.2526,-1.2511,-1.2522,-1.2508,-1.2501,-1.2532,-1.253,-1.2542,-1.255,-1.2536,-1.2587,-1.2576,-1.2555,-1.2521,-1.2578,-1.26,-1.2609,-1.2489,-1.2488,-1.2487,-1.2487,0,0,-1.2536,-1.2533,-1.2541,-1.2545,-1.2544,-1.2559,-1.2584,-1.2596,-1.2606,-1.2612,-1.2633,-1.2655,-1.2636,-1.2641,-1.2628,-1.2649,-1.2704,-1.2624,-1.2624,-1.264,-1.2761,-1.2778,-1.2789,-1.2691,-1.2692,-1.2694,-1.2761,0,-1.2599,-1.2641,-1.2625,-1.2669,-1.2686,-1.2659,-1.2681,-1.2684,-1.2678,-1.2693,-1.2687,-1.2704,-1.2676,-1.2679,-1.2699,-1.2693,-1.2728,-1.2688,-1.2711,-1.2712,-1.2712,-1.28,-1.2817,-1.2881,-1.277,-1.2771,-1.2772,0,-1.2678,-1.2687,-1.2732,-1.2731,-1.2737,-1.2757,-1.2768,-1.2782,-1.2786,-1.278,-1.2788,-1.277,-1.2796,-1.2763,-1.2798,-1.2772,-1.278,-1.2779,-1.2781,-1.2783,-1.2746,-1.2804,-1.29,-1.291,-1.2785,-1.2784,-1.2783,0,-1.2742,-1.2765,-1.2795,-1.2799,-1.2798,-1.2813,-1.2813,-1.2815,-1.2824,-1.2833,-1.2839,-1.2852,-1.2859,-1.2869,-1.2857,-1.2833,-1.2895,-1.286,-1.2892,-1.2892,-1.2906,-1.2905,-1.3005,-1.2911,-1.2911,-1.2911,-1.2911,0,-1.2813,-1.2843,-1.2824,-1.2843,-1.2876,-1.2858,-1.289,-1.2888,-1.289,-1.2909,-1.2886,-1.2904,-1.2886,-1.2902,-1.2893,-1.2925,-1.2928,-1.2925,-1.2922,-1.2927,-1.2928,-1.2933,-1.2928,-1.2913,-1.2913,-1.2912,-1.2912,0,-1.289,-1.2879,-1.291,-1.2907,-1.2907,-1.2931,-1.2929,-1.2947,-1.294,-1.2964,-1.2969,-1.2959,-1.2978,-1.2966,-1.2985,-1.2979,-1.3021,-1.3012,-1.302,-1.3017,-1.305,-1.3048,-1.3157,-1.3171,-1.3068,-1.3069,-1.307,0,-1.2937,-1.2958,-1.2958,-1.2969,-1.2971,-1.2988,-1.2997,-1.2981,-1.2992,-1.2999,-1.3017,-1.3033,-1.3046,-1.3078,-1.3073,-1.3088,-1.3079,-1.3117,-1.3081,-1.3086,-1.3081,-1.308,-1.3082,-1.3124,-1.3125,-1.3126,-1.3127,0,-1.3021,-1.3015,-1.3029,-1.3042,-1.3053,-1.3062,-1.307,-1.308,-1.3064,-1.3078,-1.3097,-1.3107,-1.3127,-1.3145,-1.3158,-1.3159,-1.3141,-1.3138,-1.3146,-1.3152,-1.3156,-1.3155,-1.304,-1.3135,-1.3135,-1.3134,-1.3133,-1.3133,-1.3084,-1.3103,-1.3106,-1.3123,-1.3127,-1.3135,-1.3152,-1.3148,-1.3164,-1.3179,-1.3169,-1.3192,-1.3197,-1.3212,-1.3216,-1.3235,-1.3219,-1.3231,-1.3234,-1.3238,-1.3243,-1.3153,-1.3237,-1.3236,-1.3236,-1.3236,-1.3236,0,-1.3168,-1.3169,-1.3185,-1.3196,-1.321,-1.3192,-1.32,-1.3213,-1.3233,-1.3239,-1.3252,-1.3275,-1.3293,-1.329,-1.3306,-1.3321,-1.3314,-1.3326,-1.3325,-1.3326,-1.3255,-1.3246,-1.3332,-1.3332,-1.3332,-1.3332,-1.3332,-1.3332,-1.3214,-1.3245,-1.3239,-1.3273,-1.3274,-1.3296,-1.3302,-1.331,-1.3315,-1.3342,-1.3356,-1.3354,-1.3357,-1.3373,-1.3389,-1.3388,-1.3395,-1.3411,-1.3407,-1.334,-1.3331,-1.3322,-1.3314,-1.3413,-1.3413,-1.3477,-1.3477,-1.3478]},{"header":{"parameterUnit":"m.s-1","parameterCategory":1,"la1":30.2991,"la2":30.254,"lo1":-89.0895,"lo2":-89.0444,"dy":0.0017,"dx":0.0017,"nx":28,"ny":28,"refTime":"2024-12-18T03:00:00:Z","depth":0,"parameterNumber":3,"parameterNumberName":"V-component_of_WINDS"},"data":[0,0,0,0,0,0,0,0,0,0,0,0,0,0,0,0,0,0,0,0,0,0,0,0,0,0,0,0,0,0,0,0,0,0,0,0,0,0,0,0,0,0,0,0,0,0,0,0,0,0,0,0,0,0,0,0,0,0,1.2512,1.2512,0,1.2514,1.2514,1.2514,1.2516,1.2516,1.2516,1.2516,1.2517,1.2517,1.2517,0,0,0,0,0,0,0,0,0,0,0,0,0,1.2511,1.2511,1.2512,1.2512,1.2512,1.2514,1.2514,1.2514,1.2516,1.2516,1.2516,1.2516,1.2517,1.2517,1.2517,0,0,0,0,0,0,0,0,0,0,0,0,0,1.2512,1.2511,1.2512,1.2514,1.2514,1.2514,1.2514,1.2514,1.2516,1.2516,1.2516,1.2516,1.2517,1.2517,1.2517,1.2515,0,0,1.2517,1.2517,0,0,0,0,0,0,0,0,1.2512,1.2512,1.2513,1.2514,1.2514,1.2515,1.2514,1.2514,1.2516,1.2515,1.2516,1.2516,1.2516,1.2516,1.2516,1.2516,1.2516,1.2517,1.2517,1.2517,1.2517,0,0,0,0,0,0,0,1.2512,1.2512,1.2513,1.2513,1.2514,1.2514,1.2514,1.2514,1.2515,1.2515,1.2516,1.2516,1.2516,1.2516,1.2516,1.2516,1.2517,1.2517,1.2517,1.2517,1.2514,1.2514,0,0,0,0,0,0,1.2511,1.2512,1.2513,1.2513,1.2513,1.2514,1.2514,1.2514,1.2515,1.2516,1.2516,1.2516,1.2516,1.2516,1.2516,1.2515,1.2517,1.2517,1.2517,1.2514,1.2514,1.2514,0,0,0,0,0,0,1.2511,1.2512,1.2513,1.2512,1.2513,1.2514,1.2514,1.2514,1.2515,1.2516,1.2516,1.2516,1.2517,1.2517,1.2516,1.2515,1.2517,1.2517,1.2514,1.2514,1.2514,1.2512,0,0,0,0,0,0,1.2511,1.2512,1.2511,1.2512,1.2513,1.2512,1.2514,1.2514,1.2515,1.2515,1.2516,1.2516,1.2517,1.2516,1.2516,1.2515,1.2517,1.2514,1.2514,1.2514,1.2512,1.2512,1.2512,0,0,0,0,0,1.2511,1.251,1.2511,1.2511,1.2512,1.2512,1.2512,1.2514,1.2515,1.2514,1.2515,1.2516,1.2515,1.2516,1.2516,1.2515,1.2515,1.2514,1.2514,1.2513,1.2512,1.2512,0,0,0,0,0,0,1.2508,1.251,1.2511,1.251,1.2511,1.2513,1.2512,1.2513,1.2513,1.2514,1.2515,1.2515,1.2514,1.2515,1.2515,1.2514,1.2515,1.2515,1.2514,1.2514,1.2513,1.2513,1.2517,0,0,0,0,0,1.2507,1.2507,1.2509,1.2508,1.2509,1.251,1.251,1.2511,1.2512,1.2512,1.2513,1.2514,1.2514,1.2514,1.2514,1.2513,1.2513,1.2512,1.2512,1.2512,1.2512,1.2512,1.2511,1.2514,1.2514,1.2514,0,0,1.2505,1.2506,1.2506,1.2507,1.2508,1.2508,1.251,1.251,1.251,1.2512,1.2512,1.2513,1.2513,1.2513,1.2512,1.2513,1.2511,1.2512,1.2512,1.2511,1.2512,1.2511,1.2511,1.2514,1.2514,1.2514,0,0,1.2502,1.2503,1.2502,1.2503,1.2505,1.2506,1.2506,1.2508,1.2508,1.2508,1.251,1.251,1.251,1.2511,1.2511,1.2509,1.251,1.2509,1.2508,1.2508,1.2508,1.2507,1.2507,1.2507,1.2509,1.2509,1.2509,0,1.2499,1.25,1.2502,1.2502,1.2503,1.2505,1.2505,1.2505,1.2507,1.2507,1.2508,1.2508,1.2509,1.2509,1.2509,1.2509,1.2509,1.2509,1.2507,1.2507,1.2507,1.2507,1.2507,1.2509,1.2509,1.2509,1.2509,0,1.2496,1.2497,1.2496,1.2498,1.2499,1.2499,1.2501,1.2501,1.2503,1.2504,1.2504,1.2505,1.2506,1.2506,1.2507,1.2506,1.2506,1.2507,1.2508,1.2507,1.2507,1.2506,1.2509,1.2509,1.2509,1.2509,0,0,1.249,1.2494,1.2494,1.2495,1.2497,1.2498,1.2498,1.2499,1.2499,1.2501,1.2501,1.2501,1.2503,1.2503,1.2504,1.2504,1.2503,1.2505,1.2505,1.2505,1.2503,1.2502,1.2502,1.2504,1.2504,1.2504,1.2503,0,1.2487,1.2488,1.249,1.249,1.2491,1.2494,1.2494,1.2496,1.2497,1.2498,1.2499,1.25,1.2501,1.2502,1.2502,1.2503,1.2503,1.2503,1.2504,1.2504,1.2504,1.2502,1.2501,1.25,1.2503,1.2503,1.2503,0,1.2484,1.2485,1.2486,1.2489,1.2489,1.2489,1.2491,1.2492,1.2494,1.2495,1.2496,1.2497,1.2498,1.2499,1.25,1.2501,1.2501,1.2502,1.2502,1.2502,1.2503,1.2502,1.2499,1.2499,1.2503,1.2503,1.2503,0,1.2479,1.2481,1.2482,1.2483,1.2487,1.2487,1.2488,1.249,1.2491,1.2493,1.2493,1.2495,1.2495,1.2497,1.2499,1.2499,1.2499,1.2501,1.25,1.25,1.25,1.25,1.2498,1.25,1.25,1.25,1.25,0,1.2476,1.2476,1.248,1.2481,1.2481,1.2484,1.2484,1.2486,1.2488,1.2489,1.2491,1.2492,1.2495,1.2496,1.2498,1.2498,1.2498,1.2499,1.25,1.2499,1.2499,1.2499,1.2499,1.25,1.25,1.25,1.25,0,1.247,1.2474,1.2475,1.2478,1.2479,1.2479,1.2483,1.2483,1.2485,1.2486,1.2487,1.249,1.2491,1.2494,1.2495,1.2497,1.2497,1.2498,1.2496,1.2497,1.2496,1.2496,1.2494,1.2494,1.2497,1.2497,1.2497,0,1.2468,1.2468,1.2472,1.2473,1.2475,1.2476,1.2478,1.2481,1.2482,1.2485,1.2485,1.2487,1.2489,1.2491,1.2493,1.2495,1.2495,1.2495,1.2496,1.2495,1.2496,1.2496,1.2496,1.2494,1.2494,1.2494,1.2494,0,1.2463,1.2465,1.2467,1.2469,1.2471,1.2473,1.2475,1.2476,1.248,1.2481,1.2483,1.2484,1.2487,1.2488,1.2491,1.2492,1.2494,1.2494,1.2494,1.2493,1.2492,1.2493,1.2496,1.2494,1.2494,1.2494,1.2494,1.2494,1.2459,1.246,1.2463,1.2465,1.2468,1.247,1.2471,1.2473,1.2475,1.2478,1.248,1.2482,1.2484,1.2488,1.2489,1.249,1.2491,1.2491,1.2491,1.2491,1.2491,1.2493,1.2491,1.2491,1.2491,1.2491,1.2491,0,1.2455,1.2457,1.2459,1.2463,1.2465,1.2467,1.247,1.2471,1.2473,1.2475,1.2477,1.248,1.2482,1.2485,1.2487,1.2488,1.2489,1.2488,1.2488,1.2488,1.249,1.249,1.2487,1.2487,1.2487,1.2487,1.2487,1.2487,1.2453,1.2454,1.2456,1.2459,1.2462,1.2464,1.2466,1.2468,1.247,1.2473,1.2475,1.2477,1.248,1.2482,1.2485,1.2485,1.2486,1.2485,1.2486,1.2488,1.2488,1.2488,1.2488,1.2486,1.2486,1.2485,1.2485,1.2485]}]]